• In Hungary
  • List of Countries
  • For 7 days
  • Water Temperature
  • Satellite Maps
  • Weather Map
  • News
  • Weather Widgets
  • user-avatar
    Login

    Hourly Weather Nashavar

    Today, 16 July, Monday

    Time Temperature Precipitation Wind Pressure Humidity
    00:00 +37°C° 1.5 mm 3 mps 720 mmHg 53%
    01:00 +37°C° 1.5 mm 3 mps 720 mmHg 55%
    02:00 +36°C° 1.5 mm 2 mps 720 mmHg 57%
    03:00 +36°C° 2 mm 2 mps 720 mmHg 59%
    04:00 +35°C° 2 mm 2 mps 720 mmHg 61%
    05:00 +34°C° 2 mm 1 mps 721 mmHg 63%
    06:00 +34°C° 1.7 mm 1 mps 721 mmHg 61%
    07:00 +35°C° 1.7 mm 1 mps 721 mmHg 60%
    08:00 +36°C° 1.7 mm 2 mps 721 mmHg 58%
    09:00 +37°C° 0.8 mm 2 mps 721 mmHg 55%
    10:00 +37°C° 0.8 mm 2 mps 721 mmHg 52%
    11:00 +38°C° 0.8 mm 3 mps 721 mmHg 49%
    12:00 +39°C° 0.2 mm 3 mps 721 mmHg 47%
    13:00 +39°C° 0.2 mm 3 mps 721 mmHg 45%
    14:00 +40°C° 0.2 mm 2 mps 720 mmHg 43%
    15:00 +40°C° 0 mm 2 mps 720 mmHg 43%
    16:00 +40°C° 0 mm 2 mps 720 mmHg 42%
    17:00 +41°C° 0 mm 2 mps 719 mmHg 41%
    18:00 +40°C° 0.1 mm 2 mps 719 mmHg 42%
    19:00 +40°C° 0.1 mm 2 mps 719 mmHg 44%
    20:00 +39°C° 0.1 mm 2 mps 719 mmHg 46%
    21:00 +39°C° 0.2 mm 2 mps 720 mmHg 47%
    22:00 +38°C° 0.2 mm 2 mps 720 mmHg 48%
    23:00 +38°C° 0.2 mm 2 mps 720 mmHg 49%

    Tomorrow, 17 July, Tuesday

    Time Temperature Precipitation Wind Pressure Humidity
    00:00 +37°C° 0.7 mm 2 mps 720 mmHg 52%
    01:00 +36°C° 0.7 mm 2 mps 720 mmHg 55%
    02:00 +35°C° 0.7 mm 1 mps 720 mmHg 57%
    03:00 +34°C° 0.4 mm 1 mps 720 mmHg 59%
    04:00 +34°C° 0.4 mm 1 mps 720 mmHg 60%
    05:00 +34°C° 0.4 mm 1 mps 720 mmHg 62%
    06:00 +34°C° 0.5 mm 1 mps 720 mmHg 60%
    07:00 +36°C° 0.5 mm 2 mps 720 mmHg 58%
    08:00 +36°C° 0.5 mm 2 mps 721 mmHg 55%
    09:00 +37°C° 0.1 mm 2 mps 721 mmHg 52%
    10:00 +38°C° 0.1 mm 2 mps 721 mmHg 49%
    11:00 +39°C° 0.1 mm 2 mps 721 mmHg 45%
    12:00 +40°C° 0 mm 2 mps 720 mmHg 42%
    13:00 +41°C° 0 mm 2 mps 720 mmHg 39%
    14:00 +42°C° 0 mm 2 mps 720 mmHg 36%
    15:00 +42°C° 0 mm 2 mps 719 mmHg 35%
    16:00 +43°C° 0 mm 2 mps 719 mmHg 34%
    17:00 +43°C° 0 mm 2 mps 718 mmHg 33%
    18:00 +42°C° 0.2 mm 2 mps 719 mmHg 35%
    19:00 +42°C° 0.2 mm 2 mps 719 mmHg 37%
    20:00 +42°C° 0.2 mm 3 mps 719 mmHg 39%
    21:00 +40°C° 0.9 mm 2 mps 719 mmHg 42%
    22:00 +39°C° 0.9 mm 2 mps 720 mmHg 46%
    23:00 +38°C° 0.9 mm 2 mps 720 mmHg 49%

    Day after tomorrow, 18 July, Wednesday

    Time Temperature Precipitation Wind Pressure Humidity
    00:00 +38°C° 1.6 mm 2 mps 720 mmHg 52%
    01:00 +37°C° 1.6 mm 2 mps 720 mmHg 55%
    02:00 +36°C° 1.6 mm 2 mps 720 mmHg 58%
    03:00 +36°C° 0.7 mm 2 mps 720 mmHg 60%
    04:00 +35°C° 0.7 mm 2 mps 720 mmHg 62%
    05:00 +35°C° 0.7 mm 2 mps 720 mmHg 64%
    06:00 +35°C° 0.2 mm 2 mps 720 mmHg 63%
    07:00 +35°C° 0.2 mm 2 mps 721 mmHg 62%
    08:00 +36°C° 0.2 mm 2 mps 721 mmHg 61%
    09:00 +37°C° 0.1 mm 2 mps 721 mmHg 57%
    10:00 +38°C° 0.1 mm 2 mps 721 mmHg 52%
    11:00 +39°C° 0.1 mm 2 mps 721 mmHg 48%
    12:00 +40°C° 0 mm 2 mps 721 mmHg 44%
    13:00 +41°C° 0 mm 2 mps 720 mmHg 41%
    14:00 +42°C° 0 mm 2 mps 719 mmHg 37%
    15:00 +43°C° 0 mm 2 mps 719 mmHg 36%
    16:00 +43°C° 0 mm 2 mps 719 mmHg 35%
    17:00 +44°C° 0 mm 3 mps 719 mmHg 33%
    18:00 +43°C° 0.1 mm 3 mps 719 mmHg 36%
    19:00 +43°C° 0.1 mm 4 mps 719 mmHg 39%
    20:00 +42°C° 0.1 mm 4 mps 719 mmHg 42%
    21:00 +41°C° 0.7 mm 4 mps 719 mmHg 46%
    22:00 +40°C° 0.7 mm 4 mps 720 mmHg 50%
    23:00 +38°C° 0.7 mm 4 mps 720 mmHg 54%

    19 July, Thursday

    Time Temperature Precipitation Wind Pressure Humidity
    00:00 +37°C° 1 mm 3 mps 720 mmHg 57%
    01:00 +36°C° 1 mm 2 mps 720 mmHg 61%
    02:00 +35°C° 1 mm 2 mps 720 mmHg 64%
    03:00 +35°C° 0.6 mm 2 mps 720 mmHg 66%
    04:00 +35°C° 0.6 mm 2 mps 720 mmHg 67%
    05:00 +35°C° 0.6 mm 2 mps 719 mmHg 68%
    06:00 +35°C° 0.5 mm 2 mps 720 mmHg 66%
    07:00 +35°C° 0.5 mm 2 mps 720 mmHg 64%
    08:00 +35°C° 0.5 mm 1 mps 720 mmHg 62%
    09:00 +36°C° 0.1 mm 1 mps 720 mmHg 56%
    10:00 +37°C° 0.1 mm 1 mps 720 mmHg 51%
    11:00 +39°C° 0.1 mm 1 mps 720 mmHg 45%
    12:00 +40°C° 0 mm 2 mps 719 mmHg 42%
    13:00 +41°C° 0 mm 2 mps 719 mmHg 38%
    14:00 +42°C° 0 mm 2 mps 719 mmHg 35%
    15:00 +43°C° 0 mm 3 mps 718 mmHg 35%
    16:00 +44°C° 0 mm 3 mps 718 mmHg 34%
    17:00 +44°C° 0 mm 3 mps 718 mmHg 34%
    18:00 +43°C° 0 mm 3 mps 718 mmHg 36%
    19:00 +43°C° 0 mm 3 mps 719 mmHg 39%
    20:00 +42°C° 0 mm 4 mps 719 mmHg 41%
    21:00 +41°C° 0.3 mm 4 mps 719 mmHg 45%
    22:00 +40°C° 0.3 mm 4 mps 719 mmHg 48%
    23:00 +40°C° 0.3 mm 4 mps 719 mmHg 52%

    20 July, Friday

    Time Temperature Precipitation Wind Pressure Humidity
    00:00 +38°C° 1.2 mm 3 mps 719 mmHg 55%
    01:00 +37°C° 1.2 mm 3 mps 719 mmHg 58%
    02:00 +36°C° 1.2 mm 2 mps 718 mmHg 62%
    03:00 +36°C° 1.2 mm 2 mps 718 mmHg 64%
    04:00 +35°C° 1.2 mm 2 mps 718 mmHg 66%
    05:00 +35°C° 1.2 mm 2 mps 718 mmHg 68%
    06:00 +35°C° 0.8 mm 2 mps 719 mmHg 66%
    07:00 +35°C° 0.8 mm 2 mps 719 mmHg 64%
    08:00 +36°C° 0.8 mm 2 mps 719 mmHg 62%
    09:00 +37°C° 0.2 mm 2 mps 719 mmHg 57%
    10:00 +38°C° 0.2 mm 2 mps 719 mmHg 52%
    11:00 +39°C° 0.2 mm 3 mps 719 mmHg 47%
    12:00 +40°C° 0 mm 3 mps 719 mmHg 45%
    13:00 +42°C° 0 mm 3 mps 718 mmHg 42%
    14:00 +42°C° 0 mm 3 mps 718 mmHg 39%
    15:00 +43°C° 0 mm 3 mps 718 mmHg 38%
    16:00 +43°C° 0 mm 3 mps 718 mmHg 38%
    17:00 +43°C° 0 mm 3 mps 718 mmHg 38%
    18:00 +42°C° 0 mm 4 mps 718 mmHg 41%
    19:00 +42°C° 0 mm 4 mps 718 mmHg 43%
    20:00 +41°C° 0 mm 5 mps 719 mmHg 46%
    21:00 +40°C° 1.9 mm 5 mps 719 mmHg 52%
    22:00 +37°C° 1.9 mm 4 mps 719 mmHg 58%
    23:00 +36°C° 1.9 mm 4 mps 720 mmHg 64%

    21 July, Saturday

    Time Temperature Precipitation Wind Pressure Humidity
    00:00 +35°C° 2.3 mm 3 mps 719 mmHg 66%
    01:00 +35°C° 2.3 mm 3 mps 719 mmHg 68%
    02:00 +34°C° 2.3 mm 2 mps 719 mmHg 70%
    03:00 +34°C° 1.4 mm 2 mps 719 mmHg 71%
    04:00 +34°C° 1.4 mm 2 mps 719 mmHg 72%
    05:00 +32°C° 1.4 mm 2 mps 719 mmHg 73%
    06:00 +34°C° 0.6 mm 2 mps 719 mmHg 71%
    07:00 +34°C° 0.6 mm 2 mps 719 mmHg 69%
    08:00 +34°C° 0.6 mm 2 mps 720 mmHg 66%
    09:00 +36°C° 0.1 mm 2 mps 720 mmHg 62%
    10:00 +37°C° 0.1 mm 2 mps 720 mmHg 57%
    11:00 +38°C° 0.1 mm 2 mps 720 mmHg 52%
    12:00 +39°C° 0 mm 3 mps 719 mmHg 49%
    13:00 +39°C° 0 mm 3 mps 719 mmHg 46%
    14:00 +40°C° 0 mm 3 mps 719 mmHg 43%
    15:00 +42°C° 0 mm 3 mps 719 mmHg 43%
    16:00 +42°C° 0 mm 3 mps 718 mmHg 42%
    17:00 +42°C° 0 mm 3 mps 718 mmHg 42%
    18:00 +41°C° 0 mm 4 mps 719 mmHg 44%
    19:00 +41°C° 0 mm 4 mps 719 mmHg 47%
    20:00 +40°C° 0 mm 4 mps 719 mmHg 49%
    21:00 +38°C° 0.4 mm 4 mps 720 mmHg 53%
    22:00 +37°C° 0.4 mm 3 mps 720 mmHg 56%
    23:00 +37°C° 0.4 mm 3 mps 720 mmHg 60%
    Show more